SCP
1 1 1 1 1 1 1 1 1 1 1 1 1 1 1 1 1 1 1 1 1 1 1 1 1 1 1 1 1 1 2 1 1 1 1 1 1 1 1 1 1 1 1
1 1 1 1 1 1 1 1 1 1 1 1 1 1 1 1 1 1 1 1 1 1 1 1 1 1 1 1 1 1 1 1 1 1 1 1 1 1 1 1 1 1 1
1 1 1 1 1 1 1 1 1 1 1 1 1 1 1 1 1 1 1 1 1 1 1 1 1 1 1 1 1 1 1 1 1 1 2 1 1 1 1 1 1 1 1
1 1 1 1 1 1 1 1 1 1 1 1 1 1 1 1 1 1 1 1 1 1 1 1 1 1 1 1 1 1 1 1 1 1 2 2 1 1 1 1 1 1 1
1 1 1 1 1 1 1 1 1 1 1 1 1 1 1 1 1 1 1 1 1 1 1 1 1 1 1 1 1 1 2 2 2 2 1 1 1 1 1 1 1 1 1
2 2 1 1 1 1 1 1 1 2 2 2 2 2 1 1 1 1 1 1 1 1 1 1 1 1 1 1 1 2 1 1 2 2 2 1 1 1 1 1 1 1 1
2 2 2 2 2 1 1 1 2 2 2 2 2 2 1 1 1 1 1 1 1 1 1 1 1 1 1 1 1 1 1 1 2 2 2 2 1 1 1 1 1 1 1
2 2 2 2 2 2 2 2 2 2 3 2 2 2 1 1 1 1 1 1 1 1 1 1 1 1 1 1 1 1 1 1 1 2 2 2 2 1 1 1 1 1 1
2 2 2 2 3 2 2 2 2 2 3 3 3 2 2 2 2 1 1 1 1 1 1 1 1 1 1 1 1 1 1 1 1 1 2 2 2 2 1 1 1 1 1
2 2 2 2 2 2 2 1 1 1 2 3 3 3 2 2 1 1 1 1 1 1 1 1 1 1 1 1 1 1 1 1 1 1 2 2 2 2 2 1 1 1 1
2 2 2 2 2 2 1 1 1 1 2 2 3 3 2 2 1 1 1 1 1 1 1 1 1 1 1 1 1 1 1 1 1 1 1 2 2 2 2 1 1 1 1
2 2 2 2 1 1 1 1 1 1 1 2 3 3 3 2 2 1 1 1 1 1 1 1 1 1 1 1 1 1 1 1 0 1 1 1 1 1 1 2 2 1 1
2 2 2 1 1 1 1 1 1 1 1 1 2 3 3 2 2 1 1 1 1 1 1 1 1 1 1 1 1 1 1 1 0 0 0 0 1 1 1 1 2 2 2
1 1 1 1 1 2 2 2 1 1 1 1 1 2 2 2 2 1 1 1 1 1 1 1 1 1 1 1 1 1 1 1 0 0 0 0 0 1 1 1 1 1 1
1 1 1 1 1 2 2 2 1 1 1 1 1 1 1 2 1 1 1 1 1 1 1 1 1 1 1 1 0 1 1 0 0 0 0 0 0 0 0 1 1 1 1
1 1 1 1 1 1 2 1 1 1 1 1 1 1 1 1 1 1 1 1 1 1 1 1 1 1 1 0 0 0 0 0 0 0 0 0 0 0 0 0 0 0 0
1 2 2 1 1 1 1 1 1 0 0 0 0 0 0 1 1 1 1 0 0 0 0 1 1 1 1 0 0 0 0 0 0 0 0 0 0 0 0 0 0 0 0
2 2 1 1 1 1 1 1 0 0 0 0 0 0 0 0 0 1 0 0 0 0 0 0 1 1 1 0 0 0 0 0 0 0 0 0 0 0 0 0 0 0 0
1 1 1 1 0 0 0 0 0 0 0 0 0 0 0 0 0 0 0 0 0 0 0 0 0 0 0 0 0 0 0 0 0 0 0 0 0 0 0 0 0 0 0
1 1 0 0 0 0 0 0 0 0 0 0 0 0 0 0 0 0 0 0 0 0 0 0 0 0 0 0 0 0 0 0 0 0 0 0 0 0 0 0 0 0 0
0 0 0 0 0 0 0 0 0 0 0 0 0 0 0 0 0 0 0 0 0 0 0 0 0 0 0 0 0 0 0 0 0 0 0 0 0 0 0 0 0 0 0
0 0 0 0 0 0 0 0 0 0 0 0 0 0 0 0 0 0 0 0 0 0 0 0 0 0 0 0 0 0 0 0 0 0 0 0 0 1 1 1 0 0 0
0 0 0 0 0 0 0 0 0 0 0 0 0 0 0 0 0 0 0 0 0 0 0 0 0 0 0 0 0 0 0 0 0 0 0 0 0 0 0 0 0 0 0
0 0 0 0 0 0 0 0 0 0 0 0 0 0 0 0 0 0 0 0 0 0 0 0 0 0 0 0 0 0 0 0 0 0 0 0 0 0 0 0 0 0 0
0 0 0 0 0 0 0 0 0 0 0 0 0 0 0 0 0 0 0 0 0 0 0 0 0 0 0 0 0 0 0 0 0 0 0 0 0 0 0 0 0 0 0
0 0 0 0 0 0 0 0 0 0 0 0 0 0 0 0 0 0 0 0 0 0 0 0 0 0 0 0 0 0 0 0 0 0 0 0 0 0 0 0 0 0 0
Wind_Speed
1 1 0 1 2 2 2 2 3 3 4 5 4 4 5 5 5 4 1 2 2 3 4 5 7 8 8 8 8 9 10 10 11 12 11 11 10 10 10 10 10 9 9
0 1 0 1 2 3 3 3 3 3 4 3 4 4 5 5 4 4 3 2 2 2 2 4 6 7 7 7 7 7 8 9 10 10 10 11 10 10 10 10 9 9 9
1 1 1 1 2 3 3 3 3 3 3 3 4 4 4 3 3 3 4 3 1 2 1 2 3 4 3 3 3 3 4 6 7 8 8 8 9 9 9 9 9 9 9
0 1 1 1 2 3 3 3 3 3 3 3 3 3 2 2 3 3 3 3 2 1 1 2 1 1 1 1 1 2 3 4 5 6 7 7 8 9 9 8 9 9 10
1 1 1 2 3 2 2 3 2 3 3 3 3 2 2 2 2 2 2 2 2 2 1 2 2 1 1 1 1 1 2 3 3 5 5 5 6 7 8 9 9 10 10
1 1 1 2 3 2 2 2 3 2 3 3 3 2 2 2 2 1 2 1 1 2 1 1 1 2 3 2 1 0 1 2 2 3 4 4 5 6 6 6 8 8 9
1 1 2 1 2 2 3 4 3 2 2 2 2 2 2 2 1 1 1 1 1 1 2 1 1 1 1 3 1 1 2 2 2 2 3 3 3 4 5 6 6 6 7
1 1 2 2 2 2 2 3 3 3 2 2 3 3 2 2 2 1 1 1 1 1 1 1 2 1 2 1 2 1 1 2 3 3 3 3 3 4 4 4 4 5 6
2 2 2 3 3 3 3 3 4 4 3 2 2 3 3 2 2 1 1 0 1 1 1 1 1 1 1 1 1 2 1 1 2 3 3 3 3 3 3 3 4 4 5
1 1 2 2 3 3 3 3 3 4 4 3 2 2 3 3 3 2 2 1 1 1 2 2 2 1 1 1 2 3 3 3 2 1 1 1 1 2 3 3 3 4 5
1 1 1 1 2 3 3 3 3 4 4 4 4 3 3 3 4 4 3 2 2 2 1 2 2 2 1 1 1 3 3 2 2 1 1 2 2 2 3 3 4 4 4
0 1 1 1 2 2 3 3 3 4 4 4 4 4 4 3 3 4 4 4 3 2 2 2 2 2 2 1 1 3 2 2 2 1 1 2 3 3 3 4 4 4 4
0 1 1 1 2 3 3 3 3 4 4 4 4 4 4 4 4 4 4 4 4 2 3 3 2 2 2 1 0 1 1 2 1 1 2 3 3 4 4 4 4 4 5
2 1 1 1 2 3 3 3 3 3 3 4 4 4 4 3 3 3 3 3 4 3 3 2 2 2 1 2 1 3 3 3 1 2 2 3 4 5 5 4 4 4 4
1 1 1 1 2 2 3 3 3 3 3 3 4 3 4 3 3 3 3 4 4 4 3 2 2 2 2 2 1 4 3 3 2 2 3 3 4 4 4 3 3 3 3
0 0 1 1 2 2 2 3 3 3 3 3 3 3 3 3 3 3 3 3 4 4 4 2 2 2 2 3 2 4 3 3 4 4 4 3 3 3 3 3 4 4 4
0 1 1 2 2 2 3 3 3 3 3 3 3 3 3 3 3 3 3 3 3 3 3 3 2 1 3 4 3 4 3 4 3 6 5 4 4 4 4 4 4 4 4
1 1 2 2 2 2 3 3 3 3 3 3 3 4 4 3 3 3 3 2 2 3 3 4 3 2 3 4 4 4 4 3 3 5 6 5 6 6 6 6 5 5 5
1 1 1 2 2 3 3 3 3 3 3 3 3 4 4 4 4 3 3 2 2 2 2 3 3 3 3 3 4 4 4 3 4 4 8 8 8 7 7 7 6 6 6
1 2 2 2 2 3 3 3 3 3 3 3 3 3 4 4 4 4 3 2 2 3 2 3 3 3 2 2 3 3 2 2 3 2 2 4 7 9 8 8 8 8 7
1 1 2 2 2 2 2 4 4 3 3 3 3 3 3 3 5 5 4 3 3 2 2 3 2 2 2 2 2 2 3 2 2 2 3 3 4 5 7 9 10 9 8
1 2 2 2 2 3 4 4 5 4 3 3 3 3 3 2 2 3 4 5 5 4 3 4 3 3 3 3 3 3 3 3 2 1 3 2 2 3 3 4 6 8 9
1 2 2 2 2 3 2 3 4 4 3 3 3 4 4 3 4 3 3 5 5 6 6 5 4 5 4 3 4 4 3 3 3 2 3 3 2 3 3 2 7 8 8
1 2 2 2 2 2 2 3 5 4 3 3 3 3 4 5 5 5 5 4 4 3 4 5 4 5 5 4 4 4 4 4 4 3 3 3 2 2 3 2 8 9 8
2 2 1 2 2 1 1 3 6 3 2 3 3 3 4 4 4 6 5 5 4 3 4 5 5 5 6 6 5 4 4 4 3 1 2 3 2 2 3 3 4 10 9
2 3 2 2 2 2 1 3 6 4 3 3 2 2 0 3 4 6 5 4 4 3 3 3 4 5 6 6 7 6 5 4 3 2 1 2 3 3 3 3 2 4 6
Wind_Direction
221 221 293 318 316 313 294 291 296 304 289 282 280 281 289 286 276 275 258 166 254 275 277 271 263 253 247 240 234 227 223 226 223 221 220 220 219 219 218 215 215 214 213
227 254 268 328 330 327 329 309 308 293 286 294 292 297 296 297 288 281 276 203 174 218 268 285 283 269 255 246 236 229 220 219 217 217 217 217 217 218 216 214 212 212 214
73 307 316 307 332 319 306 297 297 287 285 294 298 300 291 291 299 294 286 279 238 178 201 299 315 304 274 256 230 219 216 212 213 212 214 213 213 213 212 214 214 212 214
66 298 323 340 323 305 305 295 296 300 303 300 300 297 301 296 288 291 288 285 291 287 159 119 22 356 342 299 235 234 226 211 212 214 217 219 217 211 209 212 217 219 218
43 327 341 350 305 307 309 305 332 311 305 304 292 282 297 297 293 287 293 304 322 300 299 133 141 130 50 35 23 213 213 199 203 217 219 220 215 211 209 210 214 218 216
32 325 319 335 314 325 323 325 316 305 298 300 295 307 288 285 285 290 284 295 323 309 305 330 233 154 121 85 55 241 219 196 197 212 222 219 209 201 198 202 207 211 209
30 327 334 342 329 339 332 326 310 296 303 311 284 278 245 219 226 256 280 305 331 333 329 323 309 331 138 132 124 261 248 225 218 217 217 214 205 195 199 205 200 199 201
4 357 353 327 346 324 329 331 321 309 322 320 304 289 262 209 191 197 256 264 330 324 321 338 348 337 308 274 103 171 251 252 243 224 200 196 196 189 184 182 185 186 186
50 18 357 343 337 324 348 331 328 323 318 314 327 310 302 306 315 205 229 278 302 310 317 336 313 325 322 301 227 110 62 343 270 244 210 192 191 175 165 171 179 180 187
61 26 359 349 336 339 340 318 347 317 305 302 297 287 295 308 290 278 233 239 265 288 322 310 310 295 288 311 63 65 58 49 42 27 197 180 173 190 191 189 192 195 199
98 36 1 344 327 328 343 333 321 308 301 301 301 290 281 270 267 280 277 270 272 283 298 294 301 293 297 291 289 62 45 23 8 336 210 206 202 209 210 206 196 192 196
157 67 339 346 325 338 334 324 317 307 310 311 302 299 293 290 284 279 284 277 275 271 272 275 270 269 270 267 55 63 18 337 314 298 267 244 236 230 232 225 215 203 196
27 29 347 337 335 334 327 326 317 323 318 309 295 294 288 280 283 283 278 280 283 271 248 242 256 264 262 282 146 91 235 249 255 270 259 244 242 238 233 227 227 222 215
24 358 326 334 333 328 331 331 316 326 322 306 301 301 287 285 279 279 283 283 280 271 252 256 262 253 276 280 59 261 238 177 191 241 252 248 243 241 233 227 226 225 216
48 353 329 332 336 333 332 321 334 330 323 312 307 300 296 296 283 277 273 272 277 279 274 263 259 260 273 286 264 267 264 131 188 232 239 242 233 226 220 211 206 218 220
82 306 329 328 320 319 322 317 325 340 327 327 318 313 307 307 303 282 272 275 272 274 280 290 288 286 295 284 246 275 273 176 215 220 216 218 212 202 205 204 203 211 217
24 337 340 316 318 320 324 322 325 322 324 332 327 324 317 310 302 297 284 272 273 277 277 289 291 273 275 284 284 278 267 253 205 188 199 208 211 209 210 212 211 212 213
333 337 320 310 319 330 330 323 320 326 327 329 333 332 330 323 307 296 290 285 283 282 273 284 291 280 271 270 276 274 268 261 249 169 191 208 214 214 214 215 209 211 215
313 316 296 298 316 320 320 315 322 327 330 335 338 332 330 326 317 315 299 297 282 272 269 270 281 290 275 272 272 264 261 261 257 181 190 203 208 212 213 214 212 211 214
285 300 304 311 310 313 319 320 323 327 328 332 332 327 326 325 324 315 304 298 297 285 270 261 263 267 268 264 263 270 265 240 257 236 208 199 195 204 211 212 213 213 215
283 300 306 311 316 309 333 330 317 309 311 318 322 324 334 337 335 320 318 319 301 290 282 271 264 268 277 270 262 269 273 262 241 247 240 218 200 210 200 208 212 214 217
302 314 324 324 330 357 24 347 307 299 299 307 315 318 306 278 300 271 283 296 300 290 295 292 282 279 274 274 281 272 274 271 258 242 260 248 229 233 225 223 181 191 210
311 324 331 332 350 20 15 334 307 289 294 310 313 311 317 343 308 313 270 236 243 242 250 278 285 284 282 286 282 277 275 282 287 285 265 262 245 245 241 188 166 193 209
286 304 318 327 338 24 13 322 304 279 298 309 311 312 315 318 334 321 303 293 276 241 235 246 268 276 282 291 279 274 273 264 256 243 242 265 263 265 265 221 177 197 211
284 291 309 318 325 357 346 301 293 292 293 300 304 314 312 319 347 319 291 288 285 271 227 233 259 272 285 284 284 273 262 260 269 257 221 262 277 280 272 252 189 193 209
275 288 315 312 309 313 305 285 290 287 305 305 300 288 306 319 323 314 295 295 295 298 298 265 234 238 243 239 228 244 263 270 281 280 234 258 273 276 270 254 245 205 212